星链-3051 (STARLINK-3051 )

导读

STARLINK-3051是美国于2021年9月14日发射的星链系列卫星,隶属于SpaceX公司主导的星链互联网卫星星座项目。星链旨在为全球提供高速低延迟宽带互联网服务,该卫星入轨后,承担为覆盖区域提供互联网接入服务的任务,推进了星链星座全球组网进程。

基本信息
目录编号:
49157
目录名称:
STARLINK-3051
国际标识:
2021-082AD
轨道中心:
EARTH
卫星名称:
星链-3051
卫星全名:
星链-3051 (STARLINK-3051 )
卫星状态:
在轨 (已飞行1740 天)
发射日期:
2021-09-14 UTC
国别 :
美国 (US)
星等 :
--
轨道信息
数据来源 国际轨道数据 AOE轨道数据
星历时间 2026-06-20T02:09:20+0800
16小时前
查看轨道信息
2026-06-18T18:00:00+0800
2天前
查看轨道信息
半长轴 6927.365km 6927.481km
偏心率 0.000193 0.0001286
轨道倾角 69.999° 69.999°
近地点辐角 151.903° 148.329°
升交点赤经 11.670° 15.088°
平近点角 208.223° 151.200°
近地点 547.891km 548.453km
远地点 550.565km 550.235km
周期 95.634分钟 95.636分钟
每日圈数 15.057424 15.057045
详细信息
固有亮度:
5
最大亮度:
2.5
卫星平台:
Starlink v1.5
覆盖范围:
全球
运营商:
太空探索技术公司
运营商所在国:
美国
制造商(研发单位):
太空探索技术公司
制造商所在国:
美国
使用方式:
暂无
卫星简介
星链(Starlink)计划是由太空探索技术公司(SpaceX)提出的一个巨型低轨卫星互联网星座项目,计划在2019年至2024年间在太空搭建由约1.2万颗卫星组成的“星链”网络,其中1584颗将部署在地球上空550千米处的近地轨道,并从2020年开始工作。该卫星仍在工作。
2D轨道图
3D轨道图
轨道高度分析图
轨道倾角分析图
轨道综合分析图
查看轨道综合分析图